| time (UTC) | temp C | wind direction | speed KPH | gust KPH | rain 1hr cm | rain 24hr cm | rain mn cm | humidity % | barometer mb |
| 20260902163316 | 27 | 360 | 3.2 | 4.8 | 0.00 | 0.00 | 0.00 | 64 | 1021.1 |
| 20260902162836 | 27 | 234 | 0.0 | 9.7 | 0.00 | 0.00 | 0.00 | 65 | 1021.1 |
| 20260902162314 | 27 | 234 | 3.2 | 9.7 | 0.00 | 0.00 | 0.00 | 64 | 1021.1 |
| 20260902161829 | 27 | 218 | 1.6 | 4.8 | 0.00 | 0.00 | 0.00 | 64 | 1021.1 |
| 20260902161333 | 27 | 200 | 3.2 | 4.8 | 0.00 | 0.00 | 0.00 | 64 | 1021.0 |
| 20260902160822 | 27 | 186 | 3.2 | 4.8 | 0.00 | 0.00 | 0.00 | 65 | 1021.3 |
| 20260902160319 | 27 | 217 | 0.0 | 6.4 | 0.00 | 0.00 | 0.00 | 66 | 1021.3 |
| 20260902155834 | 27 | 216 | 3.2 | 6.4 | 0.00 | 0.00 | 0.00 | 67 | 1021.5 |
| 20260902155337 | 27 | 211 | 1.6 | 3.2 | 0.00 | 0.00 | 0.00 | 66 | 1021.5 |
| 20260902154852 | 27 | 211 | 0.0 | 0.0 | 0.00 | 0.00 | 0.00 | 65 | 1021.5 |
| 20260902154332 | 27 | 209 | 0.0 | 0.0 | 0.00 | 0.00 | 0.00 | 66 | 1021.3 |
| 20260902153829 | 27 | 209 | 0.0 | 4.8 | 0.00 | 0.00 | 0.00 | 67 | 1021.3 |
| 20260902153331 | 27 | 209 | 1.6 | 4.8 | 0.00 | 0.00 | 0.00 | 67 | 1021.5 |
| 20260902152821 | 27 | 211 | 1.6 | 6.4 | 0.00 | 0.00 | 0.00 | 69 | 1021.6 |
| 20260902152321 | 27 | 240 | 3.2 | 6.4 | 0.00 | 0.00 | 0.00 | 66 | 1021.6 |
| 20260902151818 | 27 | 360 | 3.2 | 6.4 | 0.00 | 0.00 | 0.00 | 64 | 1021.6 |
| 20260902151320 | 27 | 251 | 4.8 | 6.4 | 0.00 | 0.00 | 0.00 | 65 | 1021.6 |
| 20260902150833 | 27 | 257 | 4.8 | 6.4 | 0.00 | 0.00 | 0.00 | 64 | 1021.7 |
| 20260902150332 | 26 | 252 | 3.2 | 4.8 | 0.00 | 0.00 | 0.00 | 65 | 1021.8 |
| 20260902145827 | 27 | 360 | 3.2 | 4.8 | 0.00 | 0.00 | 0.00 | 65 | 1021.9 |
| 20260902145352 | 27 | 219 | 1.6 | 3.2 | 0.00 | 0.00 | 0.00 | 65 | 1022.0 |
| 20260902144826 | 27 | 219 | 1.6 | 3.2 | 0.00 | 0.00 | 0.00 | 66 | 1022.2 |
| 20260902144328 | 27 | 232 | 1.6 | 3.2 | 0.00 | 0.00 | 0.00 | 66 | 1022.2 |
| 20260902143819 | 26 | 232 | 0.0 | 3.2 | 0.00 | 0.00 | 0.00 | 68 | 1022.1 |
| 20260902143314 | 26 | 232 | 0.0 | 4.8 | 0.00 | 0.00 | 0.00 | 69 | 1022.1 |
| 20260902142824 | 26 | 232 | 3.2 | 4.8 | 0.00 | 0.00 | 0.00 | 69 | 1022.1 |
| 20260902142345 | 26 | 233 | 3.2 | 4.8 | 0.00 | 0.00 | 0.00 | 70 | 1022.1 |
| 20260902141839 | 26 | 233 | 3.2 | 4.8 | 0.00 | 0.00 | 0.00 | 71 | 1022.1 |
| 20260902141321 | 25 | 231 | 3.2 | 4.8 | 0.00 | 0.00 | 0.00 | 72 | 1022.1 |
| 20260902140833 | 25 | 231 | 1.6 | 4.8 | 0.00 | 0.00 | 0.00 | 74 | 1022.1 |
| 20260902140335 | 25 | 232 | 3.2 | 4.8 | 0.00 | 0.00 | 0.00 | 73 | 1022.2 |
| 20260902135826 | 25 | 232 | 3.2 | 4.8 | 0.00 | 0.00 | 0.00 | 73 | 1022.2 |
| 20260902135319 | 25 | 360 | 3.2 | 4.8 | 0.00 | 0.00 | 0.00 | 74 | 1022.3 |
| 20260902134842 | 25 | 229 | 1.6 | 6.4 | 0.00 | 0.00 | 0.00 | 75 | 1022.3 |
| 20260902134336 | 24 | 360 | 3.2 | 6.4 | 0.00 | 0.00 | 0.00 | 75 | 1022.3 |
| 20260902133815 | 24 | 237 | 3.2 | 6.4 | 0.00 | 0.00 | 0.00 | 76 | 1022.4 |
| 20260902133336 | 24 | 360 | 3.2 | 6.4 | 0.00 | 0.00 | 0.00 | 77 | 1022.4 |
| 20260902132829 | 23 | 360 | 4.8 | 6.4 | 0.00 | 0.00 | 0.00 | 76 | 1022.4 |
| 20260902132331 | 23 | 360 | 3.2 | 6.4 | 0.00 | 0.00 | 0.00 | 77 | 1022.3 |
| 20260902131848 | 23 | 360 | 3.2 | 8.0 | 0.00 | 0.00 | 0.00 | 76 | 1022.4 |
| 20260902131329 | 23 | 360 | 4.8 | 8.0 | 0.00 | 0.00 | 0.00 | 77 | 1022.4 |
| 20260902130826 | 23 | 360 | 6.4 | 8.0 | 0.00 | 0.00 | 0.00 | 77 | 1022.3 |
| 20260902130328 | 23 | 360 | 4.8 | 8.0 | 0.00 | 0.00 | 0.00 | 78 | 1022.3 |
| 20260902125824 | 23 | 360 | 6.4 | 8.0 | 0.00 | 0.00 | 0.00 | 77 | 1022.4 |
| 20260902125317 | 23 | 225 | 3.2 | 4.8 | 0.00 | 0.00 | 0.00 | 77 | 1022.5 |
| 20260902124819 | 23 | 225 | 1.6 | 4.8 | 0.00 | 0.00 | 0.00 | 78 | 1022.6 |
| 20260902124341 | 23 | 205 | 3.2 | 6.4 | 0.00 | 0.00 | 0.00 | 78 | 1022.6 |
| 20260902123841 | 23 | 213 | 3.2 | 6.4 | 0.00 | 0.00 | 0.00 | 77 | 1022.8 |
| 20260902123317 | 23 | 227 | 3.2 | 6.4 | 0.00 | 0.00 | 0.00 | 78 | 1022.7 |
| 20260902122832 | 23 | 360 | 4.8 | 6.4 | 0.00 | 0.00 | 0.00 | 78 | 1022.8 |
| 20260902122335 | 22 | 360 | 3.2 | 8.0 | 0.00 | 0.00 | 0.00 | 80 | 1022.9 |
| 20260902121830 | 22 | 246 | 4.8 | 9.7 | 0.00 | 0.00 | 0.00 | 80 | 1023.0 |
| 20260902121336 | 22 | 360 | 6.4 | 11.3 | 0.00 | 0.00 | 0.00 | 80 | 1023.1 |
| 20260902120829 | 22 | 360 | 6.4 | 12.9 | 0.00 | 0.00 | 0.00 | 80 | 1023.0 |
| 20260902120325 | 22 | 360 | 8.0 | 12.9 | 0.00 | 0.00 | 0.00 | 79 | 1023.1 |
| 20260902115827 | 22 | 234 | 6.4 | 9.7 | 0.00 | 0.00 | 0.00 | 79 | 1023.1 |
| 20260902115329 | 22 | 360 | 4.8 | 6.4 | 0.00 | 0.00 | 0.00 | 78 | 1023.1 |
| 20260902114825 | 22 | 199 | 1.6 | 4.8 | 0.00 | 0.00 | 0.00 | 79 | 1023.2 |
| 20260902114320 | 22 | 199 | 1.6 | 4.8 | 0.00 | 0.00 | 0.00 | 79 | 1023.4 |
| 20260902113841 | 22 | 199 | 1.6 | 4.8 | 0.00 | 0.00 | 0.00 | 80 | 1023.3 |
| 20260902113344 | 22 | 199 | 3.2 | 4.8 | 0.00 | 0.00 | 0.00 | 80 | 1023.5 |
| 20260902112815 | 22 | 242 | 1.6 | 4.8 | 0.00 | 0.00 | 0.00 | 81 | 1023.5 |
| 20260902112327 | 22 | 213 | 1.6 | 4.8 | 0.00 | 0.00 | 0.00 | 81 | 1023.5 |
| 20260902111815 | 21 | 211 | 1.6 | 8.0 | 0.00 | 0.00 | 0.00 | 82 | 1023.4 |
| 20260902111315 | 21 | 360 | 3.2 | 9.7 | 0.00 | 0.00 | 0.00 | 82 | 1023.5 |
| 20260902110817 | 21 | 360 | 3.2 | 12.9 | 0.00 | 0.00 | 0.00 | 83 | 1023.6 |
| 20260902110313 | 21 | 202 | 6.4 | 12.9 | 0.00 | 0.00 | 0.00 | 83 | 1023.6 |
| 20260902105831 | 21 | 360 | 4.8 | 12.9 | 0.00 | 0.00 | 0.00 | 83 | 1023.5 |
| 20260902105327 | 21 | 360 | 8.0 | 12.9 | 0.00 | 0.00 | 0.00 | 83 | 1023.4 |
| 20260902104847 | 21 | 360 | 6.4 | 11.3 | 0.00 | 0.00 | 0.00 | 83 | 1023.4 |
| 20260902104320 | 21 | 232 | 6.4 | 12.9 | 0.00 | 0.00 | 0.00 | 82 | 1023.4 |
| 20260902103830 | 21 | 200 | 6.4 | 12.9 | 0.00 | 0.00 | 0.00 | 82 | 1023.4 |
| 20260902103330 | 21 | 360 | 8.0 | 12.9 | 0.00 | 0.00 | 0.00 | 82 | 1023.4 |
| 20260902102814 | 21 | 360 | 6.4 | 12.9 | 0.00 | 0.00 | 0.00 | 82 | 1023.4 |
| 20260902102337 | 21 | 360 | 6.4 | 12.9 | 0.00 | 0.00 | 0.00 | 82 | 1023.3 |
| 20260902101827 | 21 | 360 | 6.4 | 9.7 | 0.00 | 0.00 | 0.00 | 82 | 1023.5 |
| 20260902101350 | 21 | 240 | 4.8 | 9.7 | 0.00 | 0.00 | 0.00 | 81 | 1023.5 |
| 20260902100825 | 21 | 360 | 4.8 | 9.7 | 0.00 | 0.00 | 0.00 | 79 | 1023.4 |
| 20260902100327 | 21 | 360 | 3.2 | 12.9 | 0.00 | 0.00 | 0.00 | 80 | 1023.3 |
| 20260902095829 | 21 | 360 | 6.4 | 12.9 | 0.00 | 0.00 | 0.00 | 81 | 1023.2 |
| 20260902095324 | 21 | 205 | 1.6 | 8.0 | 0.00 | 0.00 | 0.00 | 81 | 1023.1 |
| 20260902094821 | 21 | 360 | 3.2 | 9.7 | 0.00 | 0.00 | 0.00 | 80 | 1023.0 |
| 20260902094325 | 21 | 188 | 4.8 | 9.7 | 0.00 | 0.00 | 0.00 | 80 | 1023.1 |
| 20260902093820 | 21 | 360 | 4.8 | 9.7 | 0.00 | 0.00 | 0.00 | 80 | 1023.1 |
| 20260902093317 | 21 | 360 | 3.2 | 12.9 | 0.00 | 0.00 | 0.00 | 78 | 1023.0 |
| 20260902092820 | 21 | 129 | 4.8 | 12.9 | 0.00 | 0.00 | 0.00 | 79 | 1022.9 |
| 20260902092317 | 21 | 197 | 3.2 | 14.5 | 0.00 | 0.00 | 0.00 | 79 | 1023.0 |
| 20260902091813 | 21 | 225 | 3.2 | 14.5 | 0.00 | 0.00 | 0.00 | 79 | 1023.0 |
| 20260902091317 | 21 | 169 | 3.2 | 9.7 | 0.00 | 0.00 | 0.00 | 80 | 1022.9 |
| 20260902090814 | 21 | 115 | 1.6 | 4.8 | 0.00 | 0.00 | 0.00 | 80 | 1022.9 |
| 20260902090314 | 20 | 188 | 1.6 | 8.0 | 0.00 | 0.00 | 0.00 | 80 | 1022.8 |
| 20260902085830 | 20 | 231 | 3.2 | 9.7 | 0.00 | 0.00 | 0.00 | 79 | 1022.8 |
| 20260902085314 | 21 | 360 | 1.6 | 12.9 | 0.00 | 0.00 | 0.00 | 78 | 1022.6 |
| 20260902084815 | 21 | 29 | 4.8 | 12.9 | 0.00 | 0.00 | 0.00 | 78 | 1022.6 |
| 20260902084330 | 21 | 316 | 1.6 | 14.5 | 0.00 | 0.00 | 0.00 | 79 | 1022.7 |
| 20260902083834 | 21 | 302 | 4.8 | 14.5 | 0.00 | 0.00 | 0.00 | 78 | 1022.7 |
| 20260902083329 | 21 | 53 | 4.8 | 14.5 | 0.00 | 0.00 | 0.00 | 79 | 1022.7 |
| 20260902082833 | 21 | 293 | 4.8 | 16.1 | 0.00 | 0.00 | 0.00 | 79 | 1022.7 |
| 20260902082328 | 20 | 46 | 9.7 | 19.3 | 0.00 | 0.00 | 0.00 | 80 | 1022.7 |
| 20260902081824 | 20 | 360 | 6.4 | 16.1 | 0.00 | 0.00 | 0.00 | 80 | 1022.6 |
| 20260902081329 | 20 | 82 | 9.7 | 20.9 | 0.00 | 0.00 | 0.00 | 81 | 1022.6 |
| 20260902080825 | 20 | 351 | 11.3 | 20.9 | 0.00 | 0.00 | 0.00 | 81 | 1022.6 |
| 20260902080329 | 20 | 340 | 6.4 | 19.3 | 0.00 | 0.00 | 0.00 | 81 | 1022.7 |
| 20260902075822 | 20 | 42 | 8.0 | 14.5 | 0.00 | 0.00 | 0.00 | 81 | 1022.4 |
| 20260902075318 | 20 | 65 | 3.2 | 17.7 | 0.00 | 0.00 | 0.00 | 82 | 1022.6 |
| 20260902074820 | 20 | 313 | 9.7 | 17.7 | 0.00 | 0.00 | 0.00 | 82 | 1022.4 |
| 20260902074316 | 20 | 349 | 3.2 | 16.1 | 0.00 | 0.00 | 0.00 | 83 | 1022.6 |
| 20260902073815 | 20 | 360 | 3.2 | 12.9 | 0.00 | 0.00 | 0.00 | 83 | 1022.6 |
| 20260902073339 | 19 | 60 | 8.0 | 12.9 | 0.00 | 0.00 | 0.00 | 83 | 1022.6 |
| 20260902072830 | 19 | 61 | 4.8 | 14.5 | 0.00 | 0.00 | 0.00 | 84 | 1022.4 |
| 20260902072332 | 19 | 321 | 4.8 | 14.5 | 0.00 | 0.00 | 0.00 | 84 | 1022.4 |
| 20260902071817 | 19 | 360 | 6.4 | 17.7 | 0.00 | 0.00 | 0.00 | 84 | 1022.4 |
| 20260902071335 | 19 | 42 | 6.4 | 14.5 | 0.00 | 0.00 | 0.00 | 85 | 1022.3 |
| 20260902070826 | 19 | 71 | 4.8 | 14.5 | 0.00 | 0.00 | 0.00 | 85 | 1022.3 |
| 20260902070321 | 18 | 78 | 4.8 | 14.5 | 0.00 | 0.00 | 0.00 | 86 | 1022.2 |
| 20260902065905 | 18 | 76 | 4.8 | 11.3 | 0.00 | 0.00 | 0.00 | 86 | 1022.2 |
| 20260902065315 | 18 | 73 | 4.8 | 11.3 | 0.00 | 0.00 | 0.00 | 86 | 1022.0 |
| 20260902064856 | 18 | 90 | 1.6 | 4.8 | 0.00 | 0.00 | 0.00 | 87 | 1022.1 |
| 20260902064324 | 18 | 51 | 0.0 | 6.4 | 0.00 | 0.00 | 0.00 | 86 | 1022.0 |
| 20260902063824 | 18 | 121 | 1.6 | 6.4 | 0.00 | 0.00 | 0.00 | 87 | 1022.0 |
| 20260902063316 | 18 | 41 | 1.6 | 6.4 | 0.00 | 0.00 | 0.00 | 87 | 1021.9 |
| 20260902062830 | 18 | 62 | 3.2 | 12.9 | 0.00 | 0.00 | 0.00 | 87 | 1021.9 |
| 20260902062321 | 18 | 51 | 4.8 | 12.9 | 0.00 | 0.00 | 0.00 | 86 | 1021.9 |
| 20260902061841 | 18 | 52 | 1.6 | 12.9 | 0.00 | 0.00 | 0.00 | 86 | 1021.8 |
| 20260902061425 | 18 | 95 | 3.2 | 9.7 | 0.00 | 0.00 | 0.00 | 86 | 1021.7 |
| 20260902060826 | 18 | 92 | 1.6 | 9.7 | 0.00 | 0.00 | 0.00 | 86 | 1021.7 |
| 20260902060316 | 18 | 99 | 1.6 | 9.7 | 0.00 | 0.00 | 0.00 | 86 | 1021.6 |
| 20260902055824 | 18 | 75 | 4.8 | 12.9 | 0.00 | 0.00 | 0.00 | 86 | 1021.7 |
| 20260902055343 | 18 | 321 | 6.4 | 12.9 | 0.00 | 0.00 | 0.00 | 86 | 1021.6 |
| 20260902054816 | 18 | 86 | 1.6 | 9.7 | 0.00 | 0.00 | 0.00 | 86 | 1021.4 |
| 20260902054354 | 18 | 50 | 0.0 | 16.1 | 0.00 | 0.00 | 0.00 | 86 | 1021.4 |
| 20260902053824 | 18 | 322 | 3.2 | 16.1 | 0.00 | 0.00 | 0.00 | 86 | 1021.5 |
| 20260902053329 | 18 | 93 | 4.8 | 14.5 | 0.00 | 0.00 | 0.00 | 86 | 1021.3 |
| 20260902052823 | 18 | 225 | 1.6 | 14.5 | 0.00 | 0.00 | 0.00 | 86 | 1021.2 |
| 20260902052341 | 18 | 311 | 3.2 | 14.5 | 0.00 | 0.00 | 0.00 | 86 | 1021.2 |
| 20260902051827 | 18 | 310 | 1.6 | 19.3 | 0.00 | 0.00 | 0.00 | 86 | 1021.1 |
| 20260902051316 | 18 | 360 | 3.2 | 19.3 | 0.00 | 0.00 | 0.00 | 86 | 1021.0 |
| 20260902050816 | 18 | 86 | 6.4 | 19.3 | 0.00 | 0.00 | 0.00 | 86 | 1020.9 |
| 20260902050313 | 18 | 308 | 4.8 | 19.3 | 0.00 | 0.00 | 0.00 | 86 | 1020.8 |
| 20260902045827 | 18 | 73 | 3.2 | 25.7 | 0.00 | 0.00 | 0.00 | 86 | 1020.8 |
| 20260902045322 | 18 | 132 | 12.9 | 27.4 | 0.00 | 0.00 | 0.00 | 86 | 1020.8 |
| 20260902044818 | 18 | 79 | 12.9 | 29.0 | 0.00 | 0.00 | 0.00 | 86 | 1020.7 |
| 20260902044325 | 18 | 88 | 11.3 | 30.6 | 0.00 | 0.00 | 0.00 | 86 | 1020.6 |
| 20260902043818 | 18 | 47 | 11.3 | 30.6 | 0.00 | 0.00 | 0.00 | 86 | 1020.6 |
| 20260902043332 | 18 | 53 | 12.9 | 29.0 | 0.00 | 0.00 | 0.00 | 86 | 1020.6 |
| 20260902042823 | 18 | 51 | 14.5 | 27.4 | 0.00 | 0.00 | 0.00 | 86 | 1020.8 |
| 20260902042325 | 18 | 59 | 14.5 | 27.4 | 0.00 | 0.00 | 0.00 | 86 | 1020.8 |
| 20260902041833 | 18 | 28 | 14.5 | 27.4 | 0.00 | 0.00 | 0.00 | 86 | 1020.8 |
| 20260902041325 | 18 | 41 | 12.9 | 27.4 | 0.00 | 0.00 | 0.00 | 85 | 1020.9 |
| 20260902040822 | 18 | 355 | 14.5 | 29.0 | 0.00 | 0.00 | 0.00 | 85 | 1021.0 |
| 20260902040314 | 18 | 355 | 12.9 | 27.4 | 0.00 | 0.00 | 0.00 | 85 | 1021.0 |
| 20260902035813 | 18 | 67 | 11.3 | 25.7 | 0.00 | 0.00 | 0.00 | 85 | 1021.0 |
| 20260902035325 | 18 | 338 | 12.9 | 32.2 | 0.00 | 0.00 | 0.00 | 85 | 1021.0 |
| 20260902034818 | 18 | 330 | 16.1 | 32.2 | 0.00 | 0.00 | 0.00 | 85 | 1021.0 |
| 20260902034333 | 18 | 65 | 12.9 | 30.6 | 0.00 | 0.00 | 0.00 | 85 | 1021.1 |
| 20260902033831 | 18 | 65 | 16.1 | 32.2 | 0.00 | 0.00 | 0.00 | 85 | 1021.1 |
| 20260902033316 | 18 | 31 | 14.5 | 25.7 | 0.00 | 0.00 | 0.00 | 85 | 1021.1 |
| 20260902032814 | 18 | 42 | 9.7 | 25.7 | 0.00 | 0.00 | 0.00 | 85 | 1021.2 |
| 20260902032330 | 18 | 71 | 12.9 | 30.6 | 0.00 | 0.00 | 0.00 | 85 | 1021.2 |
| 20260902031828 | 18 | 42 | 16.1 | 30.6 | 0.00 | 0.00 | 0.00 | 85 | 1021.3 |
| 20260902031325 | 18 | 346 | 14.5 | 25.7 | 0.00 | 0.00 | 0.00 | 85 | 1021.3 |
| 20260902030822 | 18 | 309 | 8.0 | 25.7 | 0.00 | 0.00 | 0.00 | 85 | 1021.4 |
| 20260902030321 | 18 | 334 | 11.3 | 29.0 | 0.00 | 0.00 | 0.00 | 85 | 1021.4 |
| 20260902025827 | 18 | 300 | 11.3 | 29.0 | 0.00 | 0.00 | 0.00 | 85 | 1021.5 |
| 20260902025321 | 18 | 360 | 14.5 | 25.7 | 0.00 | 0.00 | 0.00 | 85 | 1021.4 |
| 20260902024821 | 18 | 39 | 9.7 | 25.7 | 0.00 | 0.00 | 0.00 | 85 | 1021.4 |
| 20260902024318 | 18 | 315 | 16.1 | 25.7 | 0.00 | 0.00 | 0.00 | 85 | 1021.5 |
| 20260902023822 | 18 | 32 | 16.1 | 25.7 | 0.00 | 0.00 | 0.00 | 85 | 1021.4 |
| 20260902023338 | 18 | 42 | 9.7 | 24.1 | 0.00 | 0.00 | 0.00 | 85 | 1021.4 |
| 20260902022840 | 18 | 34 | 12.9 | 35.4 | 0.00 | 0.00 | 0.00 | 85 | 1021.5 |
| 20260902022332 | 18 | 74 | 14.5 | 35.4 | 0.00 | 0.00 | 0.00 | 85 | 1021.6 |
| 20260902021820 | 18 | 333 | 14.5 | 30.6 | 0.00 | 0.00 | 0.00 | 85 | 1021.6 |
| 20260902021353 | 18 | 53 | 14.5 | 30.6 | 0.00 | 0.00 | 0.00 | 85 | 1021.6 |
| 20260902020824 | 18 | 40 | 11.3 | 27.4 | 0.00 | 0.00 | 0.00 | 85 | 1021.5 |
| 20260902020317 | 18 | 47 | 9.7 | 25.7 | 0.00 | 0.00 | 0.00 | 85 | 1021.6 |
| 20260902015853 | 18 | 73 | 14.5 | 27.4 | 0.00 | 0.00 | 0.00 | 85 | 1021.5 |
| 20260902015347 | 18 | 349 | 16.1 | 30.6 | 0.00 | 0.00 | 0.00 | 85 | 1021.6 |
| 20260902014831 | 18 | 75 | 14.5 | 27.4 | 0.00 | 0.00 | 0.00 | 85 | 1021.6 |
| 20260902014318 | 18 | 87 | 11.3 | 29.0 | 0.00 | 0.00 | 0.00 | 85 | 1021.6 |
| 20260902013846 | 18 | 355 | 14.5 | 27.4 | 0.00 | 0.00 | 0.00 | 85 | 1021.8 |
| 20260902013339 | 18 | 28 | 14.5 | 30.6 | 0.00 | 0.00 | 0.00 | 85 | 1021.8 |
| 20260902012851 | 18 | 308 | 19.3 | 38.6 | 0.00 | 0.00 | 0.00 | 85 | 1021.9 |
| 20260902012317 | 18 | 346 | 16.1 | 37.0 | 0.00 | 0.00 | 0.00 | 85 | 1021.9 |
| 20260902011835 | 18 | 39 | 17.7 | 37.0 | 0.00 | 0.00 | 0.00 | 85 | 1021.9 |
| 20260902011328 | 18 | 75 | 14.5 | 30.6 | 0.00 | 0.00 | 0.00 | 85 | 1021.9 |
| 20260902010836 | 18 | 355 | 12.9 | 33.8 | 0.00 | 0.00 | 0.00 | 84 | 1021.7 |
| 20260902010326 | 18 | 55 | 17.7 | 29.0 | 0.00 | 0.00 | 0.00 | 84 | 1021.8 |
| 20260902005824 | 18 | 322 | 14.5 | 30.6 | 0.00 | 0.00 | 0.00 | 84 | 1021.8 |
| 20260902005335 | 18 | 64 | 17.7 | 33.8 | 0.00 | 0.00 | 0.00 | 84 | 1021.8 |
| 20260902004829 | 18 | 33 | 16.1 | 35.4 | 0.00 | 0.00 | 0.00 | 84 | 1021.9 |
| 20260902004318 | 18 | 55 | 16.1 | 33.8 | 0.00 | 0.00 | 0.00 | 84 | 1021.8 |
| 20260902003817 | 18 | 360 | 16.1 | 32.2 | 0.00 | 0.00 | 0.00 | 85 | 1021.8 |
| 20260902003324 | 18 | 51 | 19.3 | 30.6 | 0.00 | 0.00 | 0.00 | 85 | 1021.8 |
| 20260902002815 | 18 | 39 | 17.7 | 30.6 | 0.00 | 0.00 | 0.00 | 85 | 1021.9 |
| 20260902002331 | 18 | 355 | 16.1 | 30.6 | 0.00 | 0.00 | 0.00 | 84 | 1021.9 |
| 20260902001823 | 18 | 41 | 9.7 | 33.8 | 0.00 | 0.00 | 0.00 | 84 | 1021.9 |
| 20260902001326 | 18 | 55 | 16.1 | 33.8 | 0.00 | 0.00 | 0.00 | 84 | 1021.9 |
| 20260902000825 | 18 | 340 | 14.5 | 37.0 | 0.00 | 0.00 | 0.00 | 84 | 1021.9 |
| 20260902000322 | 18 | 348 | 12.9 | 37.0 | 0.00 | 0.00 | 0.00 | 84 | 1021.9 |
| 20260901235814 | 18 | 70 | 14.5 | 37.0 | 0.00 | 0.00 | 0.00 | 84 | 1021.9 |
| 20260901235338 | 18 | 36 | 14.5 | 40.2 | 0.00 | 0.00 | 0.00 | 84 | 1021.8 |
| 20260901234832 | 19 | 34 | 16.1 | 40.2 | 0.00 | 0.00 | 0.00 | 84 | 1021.9 |
| 20260901234326 | 19 | 101 | 16.1 | 32.2 | 0.00 | 0.00 | 0.00 | 84 | 1021.8 |
| 20260901233827 | 19 | 360 | 16.1 | 32.2 | 0.00 | 0.00 | 0.00 | 83 | 1021.8 |
| 20260901233322 | 19 | 329 | 14.5 | 33.8 | 0.00 | 0.00 | 0.00 | 83 | 1021.9 |
| 20260901232824 | 19 | 360 | 16.1 | 33.8 | 0.00 | 0.00 | 0.00 | 83 | 1022.0 |
| 20260901232346 | 19 | 336 | 16.1 | 32.2 | 0.00 | 0.00 | 0.00 | 83 | 1022.0 |
| 20260901231839 | 19 | 326 | 16.1 | 29.0 | 0.00 | 0.00 | 0.00 | 83 | 1022.1 |
| 20260901231317 | 19 | 53 | 17.7 | 33.8 | 0.00 | 0.00 | 0.00 | 84 | 1022.1 |
| 20260901230831 | 19 | 323 | 19.3 | 33.8 | 0.00 | 0.00 | 0.00 | 83 | 1022.0 |
| 20260901230334 | 19 | 337 | 9.7 | 25.7 | 0.00 | 0.00 | 0.00 | 83 | 1022.0 |
| 20260901225829 | 19 | 80 | 14.5 | 30.6 | 0.00 | 0.00 | 0.00 | 84 | 1022.2 |
| 20260901225352 | 19 | 75 | 17.7 | 30.6 | 0.00 | 0.00 | 0.00 | 84 | 1022.2 |
| 20260901224855 | 19 | 88 | 12.9 | 24.1 | 0.00 | 0.00 | 0.00 | 84 | 1022.3 |
| 20260901224330 | 19 | 42 | 9.7 | 24.1 | 0.00 | 0.00 | 0.00 | 84 | 1022.3 |
| 20260901223830 | 19 | 325 | 9.7 | 24.1 | 0.00 | 0.00 | 0.00 | 83 | 1022.5 |
| 20260901223336 | 19 | 86 | 11.3 | 20.9 | 0.00 | 0.00 | 0.00 | 83 | 1022.5 |
| 20260901222835 | 19 | 327 | 6.4 | 20.9 | 0.00 | 0.00 | 0.00 | 83 | 1022.5 |
| 20260901222356 | 19 | 63 | 8.0 | 22.5 | 0.00 | 0.00 | 0.00 | 83 | 1022.6 |
| 20260901221830 | 19 | 338 | 11.3 | 25.7 | 0.00 | 0.00 | 0.00 | 83 | 1022.6 |
| 20260901221327 | 19 | 30 | 11.3 | 30.6 | 0.00 | 0.00 | 0.00 | 83 | 1022.6 |
| 20260901220827 | 19 | 42 | 16.1 | 30.6 | 0.00 | 0.00 | 0.00 | 83 | 1022.7 |
| 20260901220323 | 19 | 50 | 9.7 | 22.5 | 0.00 | 0.00 | 0.00 | 82 | 1022.6 |
| 20260901215827 | 19 | 360 | 4.8 | 25.7 | 0.00 | 0.00 | 0.00 | 82 | 1022.6 |
| 20260901215323 | 19 | 322 | 6.4 | 14.5 | 0.00 | 0.00 | 0.00 | 82 | 1022.8 |
| 20260901214845 | 19 | 300 | 4.8 | 14.5 | 0.00 | 0.00 | 0.00 | 82 | 1022.9 |
| 20260901214320 | 19 | 78 | 1.6 | 22.5 | 0.00 | 0.00 | 0.00 | 82 | 1022.8 |
| 20260901213816 | 19 | 107 | 9.7 | 22.5 | 0.00 | 0.00 | 0.00 | 82 | 1022.8 |
| 20260901213318 | 19 | 360 | 4.8 | 14.5 | 0.00 | 0.00 | 0.00 | 81 | 1022.9 |
| 20260901212813 | 19 | 147 | 4.8 | 16.1 | 0.00 | 0.00 | 0.00 | 81 | 1022.8 |
| 20260901212333 | 19 | 128 | 6.4 | 16.1 | 0.00 | 0.00 | 0.00 | 81 | 1022.8 |
| 20260901211829 | 20 | 120 | 4.8 | 16.1 | 0.00 | 0.00 | 0.00 | 81 | 1022.8 |
| 20260901211331 | 20 | 143 | 9.7 | 22.5 | 0.00 | 0.00 | 0.00 | 81 | 1022.6 |
| 20260901210825 | 20 | 73 | 4.8 | 20.9 | 0.00 | 0.00 | 0.00 | 80 | 1022.6 |
| 20260901210329 | 20 | 318 | 6.4 | 30.6 | 0.00 | 0.00 | 0.00 | 80 | 1022.4 |
| 20260901205824 | 20 | 355 | 14.5 | 32.2 | 0.00 | 0.00 | 0.00 | 80 | 1022.4 |
| 20260901205328 | 20 | 360 | 4.8 | 32.2 | 0.00 | 0.00 | 0.00 | 80 | 1022.3 |
| 20260901204822 | 20 | 328 | 9.7 | 32.2 | 0.00 | 0.00 | 0.00 | 80 | 1022.1 |
| 20260901204318 | 20 | 64 | 14.5 | 32.2 | 0.00 | 0.00 | 0.00 | 80 | 1022.1 |
| 20260901203820 | 20 | 273 | 14.5 | 35.4 | 0.00 | 0.00 | 0.00 | 80 | 1022.0 |
| 20260901203316 | 20 | 37 | 17.7 | 35.4 | 0.00 | 0.00 | 0.00 | 80 | 1021.8 |
| 20260901202818 | 20 | 343 | 16.1 | 38.6 | 0.00 | 0.00 | 0.00 | 80 | 1021.8 |
| 20260901202325 | 20 | 348 | 16.1 | 32.2 | 0.00 | 0.00 | 0.00 | 80 | 1021.9 |
| 20260901201840 | 20 | 338 | 16.1 | 33.8 | 0.00 | 0.00 | 0.00 | 79 | 1021.8 |
| 20260901201323 | 20 | 360 | 14.5 | 30.6 | 0.00 | 0.00 | 0.00 | 79 | 1021.7 |
| 20260901200820 | 20 | 339 | 16.1 | 30.6 | 0.00 | 0.00 | 0.00 | 79 | 1021.6 |
| 20260901200344 | 20 | 355 | 11.3 | 35.4 | 0.00 | 0.00 | 0.00 | 79 | 1021.6 |
| 20260901195817 | 20 | 327 | 14.5 | 35.4 | 0.00 | 0.00 | 0.00 | 78 | 1021.7 |
| 20260901195340 | 20 | 360 | 16.1 | 29.0 | 0.00 | 0.00 | 0.00 | 78 | 1021.6 |
| 20260901194815 | 20 | 306 | 12.9 | 29.0 | 0.00 | 0.00 | 0.00 | 78 | 1021.6 |
| 20260901194318 | 20 | 355 | 14.5 | 33.8 | 0.00 | 0.00 | 0.00 | 78 | 1021.6 |
| 20260901193815 | 20 | 350 | 19.3 | 33.8 | 0.00 | 0.00 | 0.00 | 78 | 1021.5 |
| 20260901193336 | 20 | 56 | 12.9 | 25.7 | 0.00 | 0.00 | 0.00 | 77 | 1021.4 |
| 20260901192813 | 20 | 360 | 11.3 | 32.2 | 0.00 | 0.00 | 0.00 | 77 | 1021.4 |
| 20260901192316 | 20 | 9 | 16.1 | 30.6 | 0.00 | 0.00 | 0.00 | 77 | 1021.4 |
| 20260901191832 | 20 | 346 | 17.7 | 32.2 | 0.00 | 0.00 | 0.00 | 77 | 1021.4 |
| 20260901191334 | 20 | 42 | 14.5 | 29.0 | 0.00 | 0.00 | 0.00 | 77 | 1021.3 |
| 20260901190830 | 20 | 360 | 19.3 | 30.6 | 0.00 | 0.00 | 0.00 | 77 | 1021.4 |
| 20260901190325 | 20 | 339 | 14.5 | 30.6 | 0.00 | 0.00 | 0.00 | 77 | 1021.5 |
| 20260901185842 | 20 | 69 | 11.3 | 32.2 | 0.00 | 0.00 | 0.00 | 77 | 1021.4 |
| 20260901185325 | 20 | 348 | 14.5 | 32.2 | 0.00 | 0.00 | 0.00 | 76 | 1021.3 |
| 20260901184819 | 21 | 49 | 17.7 | 35.4 | 0.00 | 0.00 | 0.00 | 76 | 1021.4 |
| 20260901184322 | 21 | 348 | 20.9 | 35.4 | 0.00 | 0.00 | 0.00 | 76 | 1021.3 |
| 20260901183819 | 21 | 42 | 16.1 | 37.0 | 0.00 | 0.00 | 0.00 | 76 | 1021.4 |
| 20260901183316 | 21 | 360 | 22.5 | 37.0 | 0.00 | 0.00 | 0.00 | 75 | 1021.4 |
| 20260901182819 | 21 | 333 | 14.5 | 33.8 | 0.00 | 0.00 | 0.00 | 75 | 1021.4 |
| 20260901182314 | 21 | 340 | 19.3 | 33.8 | 0.00 | 0.00 | 0.00 | 75 | 1021.4 |
| 20260901181817 | 21 | 329 | 16.1 | 30.6 | 0.00 | 0.00 | 0.00 | 74 | 1021.4 |
| 20260901181337 | 21 | 339 | 14.5 | 30.6 | 0.00 | 0.00 | 0.00 | 74 | 1021.4 |
| 20260901180827 | 21 | 330 | 16.1 | 32.2 | 0.00 | 0.00 | 0.00 | 74 | 1021.2 |
| 20260901180324 | 21 | 42 | 17.7 | 32.2 | 0.00 | 0.00 | 0.00 | 74 | 1021.4 |
| 20260901175826 | 22 | 360 | 14.5 | 32.2 | 0.00 | 0.00 | 0.00 | 74 | 1021.5 |
| 20260901175318 | 22 | 360 | 14.5 | 37.0 | 0.00 | 0.00 | 0.00 | 74 | 1021.4 |
| 20260901174842 | 22 | 326 | 27.4 | 37.0 | 0.00 | 0.00 | 0.00 | 72 | 1021.4 |
| 20260901174316 | 22 | 325 | 14.5 | 40.2 | 0.00 | 0.00 | 0.00 | 72 | 1021.5 |
| 20260901173820 | 22 | 46 | 14.5 | 40.2 | 0.00 | 0.00 | 0.00 | 72 | 1021.4 |
| 20260901173316 | 22 | 40 | 14.5 | 30.6 | 0.00 | 0.00 | 0.00 | 71 | 1021.2 |
| 20260901172836 | 22 | 57 | 14.5 | 30.6 | 0.00 | 0.00 | 0.00 | 70 | 1021.2 |
| 20260901172333 | 22 | 86 | 12.9 | 30.6 | 0.00 | 0.00 | 0.00 | 70 | 1021.2 |
| 20260901171824 | 22 | 65 | 11.3 | 30.6 | 0.00 | 0.00 | 0.00 | 70 | 1021.1 |
| 20260901171327 | 22 | 42 | 11.3 | 40.2 | 0.00 | 0.00 | 0.00 | 70 | 1021.1 |
| 20260901170823 | 22 | 40 | 14.5 | 40.2 | 0.00 | 0.00 | 0.00 | 70 | 1021.1 |
| 20260901170326 | 22 | 360 | 20.9 | 33.8 | 0.00 | 0.00 | 0.00 | 70 | 1021.1 |
| 20260901165822 | 22 | 337 | 16.1 | 32.2 | 0.00 | 0.00 | 0.00 | 70 | 1021.1 |
| 20260901165315 | 22 | 84 | 19.3 | 32.2 | 0.00 | 0.00 | 0.00 | 70 | 1021.2 |
| 20260901164816 | 22 | 338 | 17.7 | 32.2 | 0.00 | 0.00 | 0.00 | 70 | 1021.2 |
| 20260901164339 | 22 | 360 | 14.5 | 32.2 | 0.00 | 0.00 | 0.00 | 69 | 1021.3 |
| 20260901163832 | 22 | 45 | 16.1 | 32.2 | 0.00 | 0.00 | 0.00 | 69 | 1021.2 |